Temp
86 96 102 100 85 89 87 91 99 93 94 101 102 99 93 94 89 80 104 105 105 100 93 91 81 81 81 81 81 81 80 80 80 80 80 80 80 80 80 81 81 82 82 82 82 82 82 82 82
102 102 101 96 85 83 87 97 92 97 99 102 99 99 95 87 96 96 98 103 104 99 97 93 80 81 81 80 80 80 80 80 80 80 80 80 80 80 80 81 82 82 83 82 82 82 82 82 82
95 103 94 92 88 84 87 96 97 98 101 99 95 101 94 89 96 97 101 103 102 100 97 87 80 80 80 80 80 80 80 80 80 81 81 80 80 80 80 81 81 82 83 83 82 82 82 82 82
99 100 97 85 85 93 94 99 98 96 99 101 99 89 93 97 96 99 103 104 103 103 96 83 80 80 80 80 80 80 80 80 80 81 80 80 80 80 80 81 81 82 82 82 82 82 81 81 81
100 97 87 85 87 96 98 99 99 96 96 98 100 90 89 96 100 101 102 104 103 101 96 90 79 80 80 80 80 80 80 80 80 80 80 80 80 80 80 81 81 82 82 82 81 81 81 82 81
92 96 84 82 89 96 98 101 99 98 99 99 97 92 91 99 99 101 104 104 105 99 95 89 80 80 80 80 80 79 79 79 79 80 80 80 80 80 80 81 81 81 81 81 81 81 81 81 80
89 90 85 88 90 94 95 103 98 97 97 97 102 91 94 99 103 104 105 105 103 101 97 93 90 84 80 79 79 79 79 79 79 79 80 80 80 80 80 80 80 81 80 80 80 81 80 80 80
94 92 86 90 88 91 99 100 103 100 96 104 103 90 89 97 103 105 106 105 105 104 102 93 94 95 92 89 79 79 79 79 79 79 80 80 80 80 80 80 80 80 80 80 80 80 80 80 79
99 84 82 87 89 94 100 96 103 104 97 98 98 100 100 101 104 103 103 103 104 103 103 103 94 92 92 92 86 80 80 80 79 81 80 80 92 89 89 87 82 80 79 79 79 79 79 79 78
90 84 86 97 98 97 98 98 98 94 94 92 94 98 99 100 101 100 100 99 100 100 103 104 93 95 97 96 88 89 88 89 89 87 89 90 90 88 92 87 81 80 80 79 79 79 79 79 91
91 83 94 98 97 100 97 97 99 94 90 94 92 92 96 98 98 99 100 101 100 101 101 102 95 96 99 98 97 97 97 95 92 90 91 91 92 90 91 83 89 89 83 92 88 88 88 94 98
86 92 94 94 96 96 94 99 95 96 97 101 99 97 97 96 98 100 101 101 100 98 97 95 95 93 93 97 98 96 97 97 97 92 89 90 92 92 92 94 95 87 87 87 92 94 95 95 94
88 90 95 95 94 95 98 95 94 95 99 102 100 97 96 97 98 100 101 101 99 95 94 94 93 89 89 91 93 94 93 96 93 93 88 90 89 87 89 89 91 91 94 92 89 89 90 89 91
92 90 92 93 93 94 92 94 94 97 98 98 96 95 97 97 98 97 96 96 95 93 92 94 91 87 91 88 89 89 91 89 93 92 89 89 87 83 86 87 89 90 92 93 92 91 90 86 87
91 83 88 90 91 90 93 87 87 97 96 94 93 94 96 96 98 95 96 94 94 93 93 90 89 89 87 86 87 90 90 93 91 90 87 86 85 83 81 86 86 88 88 87 87 88 90 90 91
81 82 77 88 89 90 89 79 90 96 92 91 92 93 94 95 96 97 96 94 94 93 89 89 94 89 86 86 87 90 89 90 90 90 89 86 85 84 82 84 85 87 83 85 87 87 87 88 89
79 73 76 82 91 88 85 81 93 96 92 90 91 93 93 94 95 95 96 94 92 91 88 88 89 89 87 85 87 87 84 88 89 89 89 83 85 85 81 83 83 81 82 83 85 85 84 83 84
72 74 79 78 87 85 83 81 90 96 93 90 91 92 92 93 93 95 96 94 92 90 87 87 87 86 85 85 84 88 87 87 89 88 86 82 83 82 80 81 80 80 81 82 83 78 80 79 80
80 79 76 83 89 83 80 82 85 92 91 90 90 91 91 92 96 96 95 93 91 88 85 84 83 82 83 84 85 85 85 86 86 86 83 81 80 80 77 80 80 79 79 78 77 77 76 78 81
77 75 75 81 86 81 80 79 86 90 90 90 90 91 92 92 93 94 93 91 89 86 84 83 82 80 81 85 85 87 85 87 85 85 80 79 78 77 77 75 76 76 77 75 75 74 74 76 79
74 72 74 75 81 81 77 75 80 87 90 91 92 93 93 93 91 92 91 89 89 85 83 82 82 80 81 85 83 80 81 80 81 83 83 81 79 78 76 75 74 74 74 75 75 75 73 72 76
68 79 77 76 74 67 78 63 76 82 84 86 89 90 92 93 93 93 92 89 88 87 86 84 82 80 81 81 82 79 80 80 83 80 83 78 79 78 76 75 74 72 74 72 73 75 73 72 71
73 81 77 75 72 71 72 68 75 84 79 83 87 89 91 93 93 93 94 93 92 89 88 84 81 81 81 80 80 79 76 83 83 82 77 76 77 78 78 76 74 71 73 73 72 71 71 73 72
79 75 74 74 72 60 69 70 72 78 81 84 88 90 91 94 95 96 97 97 92 92 90 85 81 79 80 78 76 76 76 75 76 77 74 78 80 80 79 78 74 72 71 70 71 71 70 70 71
74 68 56 56 58 56 72 69 72 81 83 87 87 89 89 91 92 93 93 95 93 90 89 88 83 78 79 77 77 76 74 73 72 72 76 74 76 78 77 74 72 72 71 70 69 69 68 68 69
71 68 59 47 53 62 73 63 73 85 87 86 87 88 88 88 91 92 93 93 95 92 89 88 83 79 79 78 77 76 75 77 77 77 76 75 74 75 74 72 71 71 71 70 69 70 70 70 70
70 65 74 63 66 62 69 72 78 80 81 83 83 84 85 86 85 88 90 92 93 92 87 86 84 81 80 79 78 76 76 74 75 73 72 73 73 74 74 72 70 70 69 69 68 68 67 68 68
73 77 62 63 49 48 62 65 67 73 76 80 81 82 84 84 85 86 88 88 90 91 87 86 85 82 82 80 78 78 76 75 74 72 71 70 70 70 70 69 69 69 69 69 66 65 67 66 67
67 65 67 66 62 52 52 62 78 77 79 78 81 83 84 84 86 86 87 87 88 89 89 85 84 84 82 81 79 77 76 75 74 72 71 71 70 69 69 70 69 69 69 68 65 63 62 61 62
72 67 67 54 53 60 60 62 81 79 81 80 81 83 84 86 86 88 87 86 87 87 87 85 84 85 84 82 79 77 76 74 72 71 71 71 69 70 70 69 69 69 69 67 65 63 62 61 60
MSLP
1009.67 1008.90 1007.79 1006.33 1004.69 1001.52 998.17 996.59 996.80 997.95 998.17 999.11 1000.01 1000.15 1001.71 1002.51 1002.76 1003.97 1005.68 1006.12 1006.81 1008.60 1010.35 1011.00 1011.81 1012.12 1012.29 1012.44 1012.67 1012.94 1013.27 1013.56 1013.89 1014.22 1014.50 1014.75 1014.96 1015.08 1015.21 1015.37 1015.47 1015.56 1015.68 1015.79 1015.90 1015.91 1015.89 1015.93 1015.91
1008.11 1007.44 1006.74 1004.69 1002.08 998.90 996.92 996.36 997.27 997.91 998.84 999.81 1000.84 1001.31 1002.12 1003.90 1004.56 1005.32 1006.04 1006.57 1007.51 1009.05 1009.92 1010.99 1012.03 1012.31 1012.58 1012.74 1012.89 1013.11 1013.36 1013.68 1014.04 1014.33 1014.59 1014.79 1014.98 1015.14 1015.30 1015.42 1015.51 1015.65 1015.80 1015.88 1015.95 1016.00 1016.05 1016.07 1016.08
1008.82 1007.23 1005.58 1002.59 1000.47 997.74 995.87 996.27 996.99 998.69 999.65 1000.35 1001.24 1001.70 1003.19 1004.86 1005.53 1005.96 1006.73 1007.21 1008.16 1008.92 1010.07 1011.63 1012.22 1012.53 1012.78 1013.03 1013.21 1013.37 1013.61 1013.83 1014.09 1014.34 1014.56 1014.79 1014.99 1015.18 1015.35 1015.47 1015.53 1015.59 1015.68 1015.79 1015.85 1015.93 1015.95 1015.93 1015.94
1007.27 1006.08 1004.96 1002.09 999.04 997.52 996.52 996.48 997.75 999.32 1000.02 1000.55 1001.46 1003.04 1005.05 1006.01 1005.92 1006.55 1006.95 1007.57 1008.15 1008.75 1010.46 1012.07 1012.48 1012.73 1013.01 1013.20 1013.40 1013.62 1013.82 1014.06 1014.32 1014.58 1014.80 1015.03 1015.26 1015.47 1015.56 1015.63 1015.73 1015.76 1015.79 1015.86 1015.92 1015.96 1015.97 1015.97 1015.90
1006.87 1004.62 1002.45 1000.54 999.00 997.13 997.13 997.85 998.65 999.13 999.93 1000.45 1001.36 1003.06 1004.89 1006.18 1006.53 1006.87 1007.17 1007.51 1007.84 1009.02 1010.79 1011.87 1012.58 1012.79 1013.06 1013.31 1013.53 1013.74 1013.96 1014.20 1014.42 1014.65 1014.87 1015.07 1015.27 1015.40 1015.52 1015.63 1015.69 1015.74 1015.81 1015.89 1015.98 1016.01 1016.01 1015.94 1015.92
1005.22 1003.60 1001.41 999.45 998.04 997.19 997.67 998.30 998.86 999.05 999.85 1000.54 1001.49 1003.26 1004.88 1006.14 1006.23 1006.69 1007.07 1007.45 1007.98 1009.50 1010.67 1011.96 1012.81 1013.02 1013.24 1013.45 1013.68 1013.91 1014.13 1014.35 1014.56 1014.76 1014.91 1015.06 1015.19 1015.35 1015.45 1015.57 1015.70 1015.76 1015.85 1015.92 1015.94 1015.97 1016.01 1016.04 1015.98
1004.49 1002.46 1000.68 998.96 997.30 996.60 997.77 998.34 998.67 999.15 999.96 1000.76 1001.68 1002.72 1004.90 1005.34 1005.91 1006.28 1006.83 1007.59 1008.42 1009.49 1010.67 1011.60 1012.35 1013.06 1013.45 1013.70 1013.92 1014.09 1014.32 1014.51 1014.68 1014.84 1014.93 1015.03 1015.15 1015.32 1015.47 1015.61 1015.69 1015.77 1015.76 1015.82 1015.86 1015.88 1015.87 1015.85 1015.81
1003.98 1002.74 1000.46 998.99 997.44 996.27 997.46 998.62 998.77 999.27 1000.28 1001.06 1001.93 1002.72 1004.41 1005.26 1005.88 1006.23 1006.66 1007.31 1007.97 1008.70 1009.69 1011.05 1011.79 1012.10 1012.64 1013.38 1014.13 1014.27 1014.42 1014.60 1014.76 1014.87 1014.96 1015.02 1015.06 1015.12 1015.24 1015.31 1015.29 1015.52 1015.61 1015.62 1015.66 1015.69 1015.69 1015.67 1015.59
1003.72 1002.51 1000.17 998.67 997.61 996.80 997.38 998.60 998.93 999.80 1000.97 1002.05 1002.73 1002.40 1003.98 1005.62 1005.86 1005.97 1006.04 1006.97 1007.39 1008.17 1008.89 1009.36 1011.30 1012.02 1012.22 1012.78 1013.95 1014.33 1014.43 1014.55 1014.65 1014.70 1014.81 1014.81 1014.02 1014.28 1014.42 1014.45 1015.00 1015.38 1015.44 1015.38 1015.36 1015.35 1015.37 1015.32 1015.23
1003.14 1001.51 999.80 998.41 997.65 997.39 997.78 998.72 999.60 1000.68 1001.41 1002.46 1003.18 1003.81 1005.01 1005.44 1005.50 1005.57 1005.95 1006.46 1007.27 1008.09 1008.37 1008.86 1010.87 1011.30 1011.43 1011.84 1013.43 1013.57 1013.69 1013.64 1013.68 1013.92 1014.00 1014.01 1013.48 1013.85 1013.79 1014.33 1014.80 1014.94 1014.96 1014.88 1014.76 1014.67 1014.67 1014.78 1013.98
1002.16 1001.06 999.48 998.53 998.97 998.18 998.02 998.84 1000.02 1000.73 1001.20 1002.10 1002.89 1004.14 1004.78 1005.20 1005.48 1005.66 1005.93 1006.33 1007.19 1008.15 1008.98 1009.43 1010.96 1011.26 1011.17 1011.77 1012.13 1012.32 1012.60 1013.02 1013.54 1013.82 1013.80 1013.84 1013.67 1013.96 1014.02 1014.33 1013.98 1014.04 1014.25 1013.76 1013.46 1013.60 1013.66 1012.67 1012.17
1001.55 1000.88 1000.36 999.83 999.46 999.58 998.78 999.11 999.42 1000.39 1000.46 1001.53 1002.83 1004.11 1004.55 1004.86 1005.17 1005.26 1005.52 1006.44 1007.31 1008.85 1009.72 1011.11 1011.72 1012.00 1012.24 1012.33 1012.25 1012.85 1012.76 1013.10 1013.09 1013.88 1014.27 1014.07 1013.64 1013.56 1013.66 1013.31 1013.18 1013.92 1014.08 1013.76 1013.26 1012.69 1012.15 1012.08 1012.38
1000.98 1000.77 1000.23 1000.32 1000.62 1000.24 999.58 999.28 999.76 1000.37 1000.92 1001.58 1002.86 1004.16 1004.45 1004.77 1005.19 1005.52 1005.99 1006.85 1008.05 1009.44 1010.83 1011.49 1012.17 1012.72 1013.07 1012.91 1013.00 1013.09 1013.28 1013.18 1013.72 1013.91 1014.61 1014.44 1014.44 1014.48 1014.40 1014.13 1014.02 1013.72 1013.16 1013.28 1013.52 1013.14 1013.02 1012.78 1012.35
1000.80 1001.04 1000.27 1000.55 1000.45 1000.17 999.69 999.46 1000.31 1000.29 1001.58 1002.14 1003.20 1004.02 1004.44 1004.77 1005.33 1006.09 1006.87 1007.43 1008.52 1009.95 1010.99 1011.66 1012.36 1013.04 1012.98 1013.33 1013.55 1013.72 1013.64 1014.15 1013.82 1014.09 1014.61 1014.61 1014.81 1015.02 1014.69 1014.43 1014.16 1013.96 1013.70 1013.40 1013.16 1012.91 1012.97 1013.07 1012.84
1001.56 1001.23 1000.37 1000.39 1000.37 1000.21 1000.39 999.79 1000.11 1000.49 1001.80 1002.28 1003.35 1003.99 1004.34 1004.85 1005.48 1006.34 1007.15 1007.91 1008.98 1010.18 1011.02 1012.00 1012.50 1012.94 1013.28 1013.67 1013.80 1013.67 1013.87 1013.77 1014.02 1014.23 1014.99 1015.05 1015.17 1015.21 1015.34 1014.72 1014.58 1014.24 1014.14 1014.25 1013.91 1013.39 1012.87 1012.63 1012.33
1002.08 1001.60 1000.26 999.79 1000.18 1000.40 1000.77 999.53 999.92 1000.87 1001.83 1002.32 1003.13 1003.65 1004.18 1004.76 1005.42 1006.35 1007.27 1008.31 1009.22 1010.16 1011.36 1011.99 1012.04 1012.97 1013.46 1013.69 1013.88 1013.74 1014.16 1014.12 1014.31 1014.50 1014.72 1015.14 1015.20 1015.32 1015.43 1014.91 1014.61 1014.41 1014.80 1014.34 1013.85 1013.47 1013.04 1012.64 1012.07
1001.69 1000.41 999.87 998.88 999.27 999.95 1000.65 999.61 999.09 1000.13 1001.17 1001.95 1002.62 1003.16 1003.71 1004.47 1005.28 1006.14 1007.11 1008.30 1009.28 1010.25 1011.37 1011.94 1012.34 1012.85 1013.49 1013.98 1013.89 1014.18 1014.72 1014.35 1014.60 1014.77 1014.83 1015.56 1015.46 1015.36 1015.65 1015.12 1014.85 1014.99 1014.80 1014.35 1014.01 1013.64 1013.44 1013.02 1012.68
1000.34 1000.08 999.16 998.56 998.45 999.93 999.81 1000.00 999.26 999.09 1000.09 1001.41 1001.91 1002.66 1003.24 1003.95 1004.74 1005.72 1006.76 1008.02 1009.28 1010.18 1011.31 1011.90 1012.48 1012.99 1013.72 1014.11 1014.30 1014.04 1014.39 1014.51 1014.60 1014.70 1015.01 1015.68 1015.74 1015.75 1015.84 1015.40 1015.21 1015.14 1014.78 1014.37 1014.11 1014.28 1014.09 1013.85 1013.42
1000.19 999.61 999.03 998.28 998.26 999.19 999.65 999.46 999.79 999.28 1000.08 1000.75 1001.44 1001.78 1002.57 1003.36 1004.22 1005.35 1006.48 1007.68 1009.00 1010.08 1011.12 1011.75 1012.40 1013.17 1013.70 1013.88 1013.76 1013.73 1013.87 1014.38 1014.68 1014.95 1015.47 1015.80 1016.02 1016.02 1016.11 1015.55 1015.21 1015.05 1014.84 1014.61 1014.82 1014.63 1014.17 1013.72 1013.23
1000.86 999.94 999.44 999.03 998.95 999.50 999.67 999.45 999.40 999.13 999.32 1000.29 1000.73 1001.14 1001.68 1002.59 1003.62 1004.52 1005.89 1007.28 1008.47 1009.65 1010.66 1011.53 1012.24 1013.03 1013.46 1013.50 1013.58 1013.64 1014.09 1014.31 1014.76 1014.98 1015.59 1015.99 1016.14 1016.21 1016.03 1015.93 1015.56 1015.30 1015.10 1014.94 1014.84 1014.75 1014.40 1013.84 1013.32
1001.01 1000.40 999.88 999.51 999.35 1000.03 1000.69 999.65 999.06 998.96 999.10 999.50 999.89 1000.43 1001.06 1001.60 1002.76 1003.71 1004.93 1006.59 1007.81 1009.02 1010.16 1011.05 1011.88 1012.64 1013.16 1013.07 1013.77 1014.42 1014.69 1014.82 1014.74 1014.53 1014.71 1015.17 1015.78 1015.96 1015.88 1015.81 1015.70 1015.57 1015.46 1014.91 1014.69 1014.54 1014.33 1013.84 1013.33
1000.45 1000.51 1000.48 1000.02 999.76 999.41 1000.51 998.83 998.27 998.46 998.25 998.89 999.39 1000.07 1000.57 1000.96 1002.00 1002.97 1003.98 1005.46 1006.94 1008.11 1009.59 1010.74 1011.55 1012.18 1012.81 1013.16 1013.34 1013.76 1013.82 1013.82 1014.07 1014.75 1014.70 1015.43 1015.38 1015.50 1015.48 1015.56 1015.53 1015.54 1015.42 1015.23 1014.94 1014.59 1014.35 1014.10 1013.37
1000.61 1000.35 1000.30 1000.58 1000.02 1000.24 999.35 998.83 997.15 996.34 997.13 997.90 998.76 999.52 999.98 1000.47 1001.27 1002.14 1002.92 1004.13 1005.86 1007.54 1008.70 1010.14 1011.17 1011.79 1012.24 1012.88 1013.22 1013.75 1014.06 1013.76 1014.02 1014.37 1014.89 1015.11 1014.85 1014.76 1014.70 1014.91 1015.20 1015.39 1015.26 1014.87 1014.76 1014.67 1014.38 1014.04 1013.56
1001.21 1001.17 1001.19 1000.99 1000.50 999.83 998.85 998.04 996.77 996.18 996.20 997.03 997.89 998.62 999.25 999.76 1000.17 1000.80 1001.61 1002.68 1004.31 1006.31 1007.73 1009.20 1010.41 1011.28 1012.02 1012.59 1013.28 1013.65 1013.88 1014.21 1014.36 1014.43 1014.81 1014.44 1014.17 1014.19 1013.99 1014.21 1014.66 1014.99 1015.08 1014.98 1014.78 1014.52 1014.28 1014.06 1013.61
1001.75 1001.56 1000.99 1000.66 999.85 998.48 998.37 997.61 996.58 996.18 996.64 996.30 997.29 998.19 999.27 1000.03 1000.61 1000.94 1001.44 1002.03 1003.09 1004.98 1006.59 1007.97 1009.61 1010.91 1011.74 1012.28 1012.81 1013.52 1013.95 1014.31 1014.47 1014.52 1014.17 1014.29 1014.17 1013.85 1013.72 1014.12 1014.55 1014.64 1014.61 1014.55 1014.54 1014.37 1014.17 1013.92 1013.54
1000.87 1001.08 1000.22 999.83 998.73 997.67 997.29 996.60 996.13 996.25 996.90 998.08 998.63 999.27 999.98 1000.55 1000.78 1000.89 1001.18 1001.84 1002.44 1003.87 1005.69 1007.18 1008.75 1010.44 1011.32 1011.85 1012.35 1013.03 1013.58 1013.88 1013.93 1013.85 1014.07 1014.31 1014.22 1013.98 1013.88 1014.11 1014.25 1014.31 1014.17 1014.08 1013.99 1013.84 1013.53 1013.24 1013.05
1000.11 999.97 1000.37 999.93 999.14 997.96 996.51 996.52 997.14 997.84 997.88 998.30 999.12 999.92 1000.20 1000.75 1001.19 1001.32 1001.50 1001.66 1002.23 1002.98 1005.01 1006.75 1008.08 1009.80 1010.63 1011.30 1011.96 1012.54 1013.10 1013.66 1013.70 1013.95 1014.25 1014.17 1014.01 1013.74 1013.61 1013.75 1013.87 1013.87 1013.81 1013.67 1013.58 1013.44 1013.17 1012.97 1012.80
1000.07 999.97 1000.01 1000.29 999.99 998.80 997.58 996.41 995.92 996.71 997.80 998.61 999.13 999.75 1000.35 1001.16 1001.40 1001.64 1001.80 1002.07 1002.48 1003.12 1004.98 1006.66 1007.88 1008.99 1009.78 1010.66 1011.43 1011.97 1012.59 1013.12 1013.39 1013.58 1013.72 1013.81 1013.81 1013.78 1013.65 1013.54 1013.49 1013.38 1013.23 1013.12 1013.12 1013.13 1012.84 1012.55 1012.38
1000.29 1000.43 1000.38 1000.49 1000.48 999.60 998.26 996.82 996.12 996.20 997.26 998.04 999.14 999.69 1000.40 1000.87 1000.99 1001.72 1002.10 1002.89 1003.37 1004.08 1005.18 1006.65 1007.63 1008.26 1009.21 1010.06 1010.75 1011.39 1011.93 1012.40 1012.84 1013.09 1013.23 1013.28 1013.28 1013.22 1013.05 1012.90 1012.80 1012.63 1012.50 1012.48 1012.55 1012.58 1012.69 1012.57 1012.23
1000.18 1000.23 1000.40 1000.73 1000.65 1000.03 998.88 997.45 996.88 997.23 997.65 998.47 999.17 999.91 1000.65 1000.95 1001.14 1001.57 1002.28 1003.08 1003.55 1004.33 1005.05 1006.24 1007.11 1007.69 1008.35 1009.26 1010.09 1010.72 1011.34 1011.97 1012.41 1012.67 1012.74 1012.78 1012.67 1012.54 1012.32 1012.18 1012.06 1011.91 1011.85 1011.87 1011.89 1011.85 1011.92 1011.78 1011.62
Wind_Speed
12 12 9 8 9 9 17 6 12 10 9 8 11 6 19 17 15 9 11 9 18 18 15 14 11 12 12 12 11 11 10 10 10 9 8 8 8 8 8 8 8 7 6 6 6 5 5 5 5
13 6 8 9 10 14 13 13 9 11 13 11 10 10 15 16 15 13 12 9 18 16 14 14 12 12 12 12 13 12 12 12 11 10 10 9 8 8 7 7 7 7 6 5 5 4 3 4 4
13 10 10 8 14 17 10 11 13 14 12 15 6 15 7 10 10 7 9 16 17 15 16 13 13 11 12 12 12 12 11 11 11 10 10 10 9 8 7 6 6 6 6 6 5 4 2 2 3
7 7 8 12 18 19 7 10 16 16 14 9 13 13 10 6 5 8 13 16 15 18 17 14 13 12 12 12 12 11 11 10 9 8 8 8 7 7 7 6 5 5 5 5 4 3 2 1 1
8 9 13 16 20 19 6 3 14 14 11 13 14 11 11 11 12 13 14 14 15 18 16 15 13 13 13 13 12 11 10 10 9 8 8 7 7 7 6 6 5 5 5 4 3 3 3 2 2
9 9 14 16 20 21 6 10 12 12 11 12 13 17 11 14 15 15 14 12 14 15 16 14 13 12 12 12 12 11 10 10 9 8 7 6 6 7 6 5 4 4 3 2 2 2 3 4 4
16 13 17 21 19 15 8 11 14 11 12 12 14 12 13 17 14 15 14 14 15 16 15 13 14 14 12 12 11 11 10 9 8 8 7 6 6 6 4 3 3 3 2 2 3 3 4 5 6
13 14 22 18 19 17 16 13 14 13 13 14 7 11 16 15 14 13 14 14 15 16 17 13 12 14 13 12 11 11 10 9 8 7 5 5 6 8 8 8 11 6 4 4 5 6 7 8 9
11 15 16 21 20 19 18 14 13 6 13 9 3 5 22 16 14 14 16 10 14 12 12 17 14 9 8 12 10 11 10 9 9 9 8 9 9 11 12 8 9 5 5 7 8 9 10 10 12
17 14 22 19 13 19 16 16 13 9 14 10 9 18 18 16 15 12 10 12 10 8 10 15 15 14 10 12 12 7 9 5 5 6 5 5 5 7 8 3 6 8 10 11 13 14 14 13 11
20 20 20 16 8 16 12 17 15 18 16 16 17 18 18 16 13 14 14 13 13 10 9 10 9 6 7 8 6 5 5 4 5 3 3 2 2 4 3 1 4 7 12 8 13 12 11 13 9
22 21 21 10 4 14 15 15 19 19 13 15 16 17 18 17 15 13 10 10 13 9 10 11 10 7 6 5 4 3 3 3 1 5 3 1 5 4 5 6 3 2 5 8 8 8 10 9 9
23 18 18 11 10 14 20 17 12 19 8 12 18 16 16 14 12 8 8 8 11 14 13 12 11 8 5 2 4 3 2 2 4 1 4 4 4 4 6 6 7 8 6 5 7 6 9 10 11
14 18 18 13 13 15 17 16 16 16 12 12 18 17 15 15 14 11 9 11 12 13 12 12 10 8 7 6 4 3 2 4 2 3 4 2 5 3 6 5 6 7 7 8 9 8 8 6 8
17 15 16 16 16 11 15 17 16 12 13 14 17 15 14 14 14 13 12 12 13 13 11 10 10 8 7 7 6 3 3 4 3 4 2 3 3 3 5 6 5 6 6 9 9 9 9 9 10
14 17 19 21 18 15 16 20 19 16 13 17 17 16 16 16 15 14 13 13 14 13 12 11 9 10 8 7 5 4 4 2 3 2 1 3 3 3 5 5 6 6 7 8 8 8 9 10 10
17 18 24 22 21 15 17 15 20 22 17 16 17 16 16 16 16 15 15 15 16 14 14 12 10 11 9 7 5 3 4 3 2 0 2 5 5 6 6 6 6 6 7 8 8 8 8 9 10
17 20 21 22 19 17 18 19 19 16 21 19 17 17 16 17 18 16 16 16 16 15 14 12 10 10 8 6 3 4 4 3 1 0 3 3 5 6 6 7 6 6 7 8 8 8 9 10 10
22 20 21 20 17 19 20 20 21 19 13 14 18 17 18 17 17 17 17 17 17 16 15 14 13 11 8 7 6 5 5 3 2 1 1 3 4 6 6 6 6 7 7 7 9 9 10 9 9
22 21 20 17 17 8 14 20 21 21 19 20 19 18 19 19 18 20 20 18 18 18 16 15 14 13 10 7 3 2 1 1 3 2 1 3 4 6 6 6 7 7 8 9 9 9 9 10 9
17 20 20 18 13 9 15 22 22 19 20 19 19 18 19 20 21 19 22 21 19 19 18 16 15 14 11 8 5 4 2 4 7 6 4 3 5 6 6 7 7 7 8 8 8 8 10 10 9
19 19 17 19 18 14 19 18 24 24 23 22 18 18 19 19 20 20 21 22 21 20 19 18 16 14 13 10 8 6 4 3 3 4 2 4 6 6 6 5 6 7 8 9 9 9 9 9 10
16 15 17 18 14 19 21 15 14 12 26 23 21 21 20 20 21 22 22 22 22 20 19 18 17 15 13 12 8 7 7 4 4 3 4 6 8 7 6 5 6 7 7 8 10 10 10 10 10
7 9 12 13 15 17 23 21 14 15 20 18 16 19 21 21 22 22 22 23 22 20 19 19 18 15 14 13 11 8 5 5 5 4 6 7 6 7 6 5 6 7 9 9 9 10 12 11 11
13 12 11 13 15 19 20 21 15 3 5 4 12 8 4 7 11 12 15 16 21 21 21 19 19 17 16 14 12 11 9 7 6 7 6 7 8 7 6 7 8 8 9 10 10 11 12 12 12
20 18 11 17 14 17 23 17 15 11 13 8 5 7 3 6 11 13 14 15 19 21 21 20 20 16 16 15 13 11 10 7 8 7 7 7 8 9 8 9 10 11 11 11 11 10 10 11 11
21 16 20 21 18 14 10 14 9 4 5 5 9 8 7 2 3 7 10 12 15 19 19 18 17 17 17 15 12 11 10 9 8 7 7 8 8 9 10 11 12 12 12 12 12 10 12 12 11
19 17 13 9 16 20 17 19 10 20 17 16 16 10 7 3 3 3 6 6 9 13 16 17 16 17 17 15 12 10 10 10 9 8 10 11 11 12 12 13 12 13 13 12 11 10 13 13 11
16 16 15 12 15 16 15 15 18 15 11 10 9 11 6 3 4 6 6 9 10 12 16 15 17 17 15 14 12 12 10 10 9 9 10 11 11 12 13 13 14 14 14 13 11 11 12 15 14
19 23 23 14 21 15 15 14 9 5 3 3 9 7 3 1 5 8 9 10 12 14 16 17 15 15 15 13 12 12 10 10 10 10 11 12 13 13 13 14 14 15 15 14 14 15 14 15 15
Wind_Direction
253 232 242 260 245 227 259 142 70 110 120 84 86 48 61 41 19 63 98 88 108 110 121 114 98 97 97 102 101 103 107 117 122 128 129 124 119 114 110 103 92 89 92 97 92 91 85 76 76
262 247 236 272 254 241 230 111 186 157 105 109 108 116 90 71 82 112 109 120 108 121 119 118 108 106 103 105 110 107 110 113 118 124 129 129 128 125 121 119 107 99 99 104 103 93 68 51 37
256 247 267 234 241 258 255 145 111 98 128 136 102 74 73 99 56 85 113 117 122 129 109 114 115 111 109 108 106 108 112 116 125 135 141 143 143 141 137 128 116 119 124 127 127 124 110 81 34
223 203 244 255 248 238 348 112 114 148 151 156 127 95 96 49 79 113 128 128 145 117 112 113 109 109 111 111 111 115 117 120 126 132 137 142 143 142 138 127 117 119 126 130 135 135 139 133 4
240 264 246 235 246 264 99 64 150 153 156 150 146 113 101 104 119 117 133 151 130 115 120 125 122 122 121 119 117 118 120 123 128 134 141 147 153 155 150 146 142 139 141 148 157 166 186 215 265
228 250 246 239 230 247 162 156 189 174 151 118 118 124 99 132 142 135 138 138 119 125 116 128 122 120 121 122 122 121 120 124 127 134 140 151 161 165 161 159 159 156 155 167 186 201 230 250 264
247 234 248 257 252 212 172 187 199 152 158 165 129 124 128 146 132 133 133 129 125 132 127 137 136 126 120 121 124 126 127 129 133 139 146 155 163 173 183 189 195 190 188 209 227 243 249 251 254
248 255 268 253 264 253 154 195 209 156 168 95 150 143 155 126 145 139 146 138 146 146 140 143 142 144 147 142 133 136 136 138 142 147 159 174 185 191 200 208 208 200 223 246 251 251 253 257 257
236 256 250 246 242 270 135 194 186 93 126 154 123 97 124 152 156 172 135 167 156 154 147 141 135 137 119 131 133 147 147 152 158 167 186 205 220 180 176 168 132 192 240 249 250 248 246 249 249
231 231 247 256 262 239 151 205 177 172 161 144 149 106 138 158 170 163 154 159 143 167 164 118 131 163 159 129 150 144 144 177 170 181 175 250 345 25 335 129 162 218 230 237 232 230 230 230 255
223 243 260 278 300 298 155 206 172 208 178 170 158 148 156 164 168 171 185 156 169 147 163 115 95 158 149 131 159 154 151 149 126 103 347 92 286 174 242 269 254 238 203 251 211 219 220 240 254
232 246 250 289 282 258 260 208 174 217 195 167 156 160 161 173 178 188 167 151 129 135 118 129 130 115 98 145 134 135 134 146 190 74 327 78 280 37 337 309 329 232 303 317 295 298 294 274 270
238 243 243 235 263 237 246 203 185 218 120 144 146 167 170 180 178 166 150 145 145 141 155 142 142 120 124 171 102 63 177 139 86 167 75 6 325 11 308 340 312 318 286 251 268 290 292 306 302
237 243 254 244 231 231 240 209 197 199 155 169 157 177 180 175 179 157 164 165 145 150 161 133 132 141 135 93 104 124 87 136 149 105 56 93 326 24 306 316 301 319 303 306 313 310 307 292 270
251 269 237 245 231 211 238 213 187 181 172 181 176 187 184 180 176 169 172 165 165 159 155 156 145 136 136 131 152 112 161 109 111 89 86 31 351 11 329 312 306 303 314 309 283 274 273 262 262
242 240 247 220 219 213 203 222 180 181 182 193 193 190 189 183 181 175 168 167 161 164 157 167 162 150 157 126 158 139 126 116 108 101 72 4 344 355 313 314 317 340 321 288 288 291 290 288 285
217 234 228 240 195 208 207 234 201 205 179 210 196 203 195 190 193 176 171 170 159 163 168 177 160 163 155 147 147 153 106 192 118 25 352 42 320 348 328 310 321 332 302 289 295 295 296 292 293
221 223 245 223 188 207 218 234 249 205 181 206 217 205 204 205 195 182 182 171 166 166 173 177 172 148 167 156 163 170 143 173 167 29 55 347 343 339 335 317 310 310 297 294 302 326 304 302 294
262 237 228 252 215 204 232 231 230 245 211 230 216 221 208 210 201 192 188 176 175 176 178 179 180 155 177 178 191 172 203 136 246 254 48 343 346 335 317 309 312 304 287 299 304 288 284 286 285
244 258 258 236 223 221 245 241 243 236 221 212 226 225 219 204 209 194 183 188 188 186 182 184 183 172 192 191 220 350 40 188 351 329 73 275 278 306 292 326 314 313 305 292 287 286 290 288 284
237 240 239 248 222 221 247 257 246 235 239 234 235 229 228 214 207 205 187 194 194 190 188 190 186 177 192 199 159 162 176 223 221 178 239 103 302 295 299 307 305 305 290 282 278 269 269 282 289
239 222 245 249 230 223 208 250 229 231 227 226 219 228 225 215 206 207 204 192 200 197 190 195 190 182 190 187 185 212 267 299 25 273 331 307 269 296 286 290 298 300 300 300 286 268 270 273 276
243 263 211 240 238 243 251 233 260 249 210 219 217 222 220 215 210 215 213 204 197 199 192 196 190 188 190 182 225 183 228 235 236 286 301 293 255 245 284 285 292 290 283 290 296 288 279 281 279
254 239 251 245 240 233 235 242 233 241 207 201 213 213 221 222 222 219 216 211 189 198 201 190 189 191 197 188 194 208 239 243 278 293 307 283 311 301 284 287 290 284 282 277 278 279 271 267 278
232 227 228 221 224 236 234 237 243 267 356 201 200 180 179 230 242 247 244 229 189 193 200 192 190 195 198 190 190 198 212 227 250 259 274 300 290 299 313 319 289 282 287 286 283 279 278 277 275
202 229 218 234 236 238 217 231 240 263 153 161 157 187 204 238 248 234 224 222 218 191 198 198 184 196 200 199 198 199 210 225 234 239 277 292 300 299 305 293 280 276 276 276 276 273 270 270 265
244 208 248 265 275 275 268 190 221 150 240 175 185 216 215 195 270 250 251 243 216 190 188 198 188 195 204 203 201 203 210 227 264 282 276 273 284 287 285 294 289 282 278 275 280 278 271 268 270
240 267 225 231 253 252 250 256 209 183 187 187 204 191 151 167 177 201 219 207 206 175 173 194 189 198 205 201 201 209 215 226 238 254 264 276 280 279 280 279 276 274 274 274 273 272 271 269 264
219 240 249 253 227 243 253 249 241 182 168 174 191 174 155 174 140 143 161 164 185 169 174 184 199 202 199 200 206 214 225 231 241 255 266 273 277 276 274 274 274 274 274 272 267 259 260 273 280
234 254 225 231 241 251 260 252 111 63 119 156 174 142 267 200 155 144 146 163 172 172 182 184 201 207 202 200 208 221 225 236 249 259 268 276 277 278 275 274 274 274 275 276 268 266 264 268 266